Current Version              Previous Version:    01  02  03  04  05  06  07  08  09  10  11  12  13  14  15  16  17  18  19  20  21  22  23  24  25  26  27  28  29  30  
   31  32  33  34  35  36  37  38  39  40  41  42  43  44  45  46  47  48  49  50  51  52  53  54  55  56  57  58  59  60  

[Printable]
778
ASUS44 KLUB 191710
RWRTX
WEST TEXAS WEATHER ROUNDUP
NATIONAL WEATHER SERVICE LUBBOCK TX
1200 PM CDT SAT APR 19 2014

NOTE: "FAIR" INDICATES FEW OR NO CLOUDS BELOW 12,000 FEET WITH NO
SIGNIFICANT WEATHER AND/OR OBSTRUCTIONS TO VISIBILITY.

TXZ004-006>008-010-012-014-016-OKZ002-191800-
TEXAS PANHANDLE/OKLAHOMA PANHANDLE

CITY           SKY/WX    TMP DP  RH WIND       PRES   REMARKS
AMARILLO       MOSUNNY   72  49  44 S24G30    30.08F
BORGER         CLOUDY    71  48  43 S17G29    30.07S
CANADIAN       CLOUDY    69  51  53 S21       30.06F
DALHART        PTSUNNY   68  46  45 S16       30.06S
DUMAS          CLOUDY    69  46  43 S15G21    30.07S
GUYMON         CLOUDY    70  47  43 S16       30.01S
HEREFORD       PTSUNNY   69  48  46 S23G30    30.10R
PAMPA          CLOUDY    68  47  47 S24       30.09F
PERRYTON       CLOUDY    67  49  50 S22G29    30.05S
$$

TXZ026-029-035-045-048-191800-
SOUTHERN PANHANDLE/SOUTH PLAINS/ROLLING PLAINS

CITY           SKY/WX    TMP DP  RH WIND       PRES   REMARKS
CHILDRESS      PTSUNNY   72  52  49 S16       30.11F
SEMINOLE       CLOUDY    65  53  65 SE13      30.09F
LUBBOCK        CLOUDY    67  52  58 S20       30.12R
PLAINVIEW      MOSUNNY   70  54  56 S21G29    30.11S
SNYDER         CLOUDY    69  55  60 SE20G25   30.13R
$$

TXZ052-054-060>062-072-078-127-140-154-169-191800-
PERMIAN BASIN/CONCHO VALLEY/BIG COUNTRY/EDWARDS PLATEAU

CITY           SKY/WX    TMP DP  RH WIND       PRES   REMARKS
ABILENE        PTSUNNY   73  52  47 S15G23    30.14F
BIG SPRING     CLOUDY    72  54  53 S21G26    30.14R
BRADY          SUNNY     72  52  49 SE9       30.16S
BROWNWOOD      PTSUNNY   73  54  49 S14G22    30.16F
JUNCTION       PTSUNNY   71  51  49 S9        30.15F
MIDLAND        PTSUNNY   72  54  53 S24G31    30.09F
ODESSA         PTSUNNY   70  55  59 S18G29    30.08F
SAN ANGELO     CLOUDY    69  52  54 SE15G26   30.13S
SONORA         CLOUDY    70  52  52 S16G24    30.16S
SWEETWATER     CLOUDY    70  53  54 SE16      30.16F
WINK           PTSUNNY   71  55  56 SE16G23   30.05R
$$

TXZ055-058-074-075-080-082-191800-
FAR WEST/SOUTHWEST MOUNTAINS/TRANS PECOS

CITY           SKY/WX    TMP DP  RH WIND       PRES   REMARKS
ALPINE         PTSUNNY   74  47  37 S14       30.15F
DRYDEN           N/A     78  55  44 SE17      30.07F
EL PASO        PTSUNNY   69  50  50 NW12      30.06S
FORT STOCKTON  MOSUNNY   66  54  65 SE17G28   30.08S
MARFA          PTSUNNY   63  50  63 S10G24    30.16R THUNDER
PECOS          MOSUNNY   74  51  43 E8        30.03F
PRESIDIO       FAIR      75  50  41 SE7       30.03F
$$

TXZ014-016-019-021>030-083-191800
TEXAS TECH WEST TEXAS MESONET/TEXAS PANHANDLE/NORTHERN SOUTH PLAINS

CITY           SKY/WX    TMP DP  RH WIND       PRES   REMARKS
ABERNATHY 5ENE   N/A     67  51  57 S20       30.13R
AMARILLO 9NNE    N/A     72  49  44 S18       30.06F
AMARILLO 7SSE    N/A     72  50  44 S17       30.10S
AMHERST 1NE      N/A     66  50  55 S22       30.13R
BOOTLEG 11WNW    N/A     67  46  47 S17       30.12R
CANADIAN 6E      N/A     69  50  51 S16       30.06F
CAPROCK CYN SP   N/A     71  52  50 S17       30.11F
CHILDRESS 2NNE   N/A     73  53  48 S13       30.10F
CLARENDON 2WSW   N/A     68  49  52 S15       30.11S
CLAUDE 12SW      N/A     71  50  48 S14       30.09F
DIMMITT 2NE      N/A     68  49  51 S20       30.10S
FLOYDADA 2NNE    N/A     66  50  56 S18       30.13S
FRIONA 2NE       N/A     69  48  47 S17       30.10S
GOODLETT 3W      N/A     72  52  49 SE10      30.11S
HART 3N          N/A     66  50  56 S17       30.11S
HEREFORD 2NW     N/A     68  47  47 S15       30.09S
MCLEAN 1E        N/A     67  50  54 S16       30.09F
MEMPHIS 1NE      N/A     72  51  48 S10       30.10F
MULESHOE 2SSW    N/A     67  49  51 S21       30.11R
OLTON 6S         N/A     68  50  51 S17       30.12R
PALO DURO SP     N/A     71  50  46 S15       30.11S
PAMPA 2E         N/A     68  50  52 S18       30.09F
PLAINVIEW 1S     N/A     68  53  58 S16       30.11S
SILVERTON 7ESE   N/A     70  50  49 S18       30.11F
TULIA 2ENE       N/A     69  51  53 S22       30.10F
TURKEY 2WSW      N/A     71  53  51 S17       30.10S
UMBARGER 3NNE    N/A     71  49  46 S24       30.10R
$$

TXZ033>036-039>041-045>048-191800
TEXAS TECH WEST TEXAS MESONET/SOUTH PLAINS

CITY           SKY/WX    TMP DP  RH WIND       PRES   REMARKS
AIKEN 3WSW       N/A     68  51  55 S21       30.13S
ANTON 6SSW       N/A     68  53  58 S22       30.12R
BROWNFIELD 2S    N/A     66  51  60 S15       30.12S
DENVR CTY 7WNW   N/A     62  49  62 S5        30.11S
GAIL 2ESE        N/A     70  54  57 S15       30.11S
LAMESA 2SE       N/A     67  55  64 S17       30.12S
LEVELLAND 4S     N/A     65  50  58 S16       30.13S
LUBBOCK 3WNW     N/A     67  52  57 S17       30.13S
MORTON 1ENE      N/A     61  49  66 S20       30.13R
ODONNELL 1N      N/A     67  53  59 S14       30.13S
PLAINS 3N        N/A     59  52  77 S6        30.12F
RALLS 1SE        N/A     67  51  56 S18       30.14S
REESE CENTER     N/A     67  51  57 S20       30.13R
SEAGRAVES 1SW    N/A     63  52  67 SE3       30.09F
SEMINOLE 2NNE    N/A     67  53  62 SE13      30.07F
SLATON 2NE       N/A     66  52  61 S20       30.14R
SNYDER 3E        N/A     71  53  54 S16       30.11S
SUNDOWN 8SW      N/A     62  50  65 SW9       30.13S
TAHOKA 3NNE      N/A     67  52  59 S17       30.12S
WOLFFORTH 6SSW   N/A     67  51  57 S18       30.13S
$$

TXZ031-032-036>038-042>044-191800-
TEXAS TECH WEST TEXAS MESONET/ROLLING PLAINS

CITY           SKY/WX    TMP DP  RH WIND       PRES   REMARKS
ASPERMONT 3NE    N/A     76  53  45 S17       30.11F
FLUVANNA 3WNW    N/A     70  53  53 S18       30.12R
GRAHAM 5SSW      N/A     66  53  62 S17       30.12S
GUTHRIE 10WSW    N/A     76  54  46 S14       30.11S
HASKELL 1NW      N/A     73  52  47 S14       30.12S
JAYTON 1SSE      N/A     73  53  50 S17       30.11F
KNOX CITY 3NW    N/A     76  52  42 S16       30.12S
LK A HENRY 1NW   N/A     72  54  53 S13       30.11S
NORTHFIELD 1S    N/A     73  54  51 S13       30.11S
ODELL 4ENE       N/A     71  53  53 S15       30.13F
PADUCAH 10SW     N/A     73  53  50 S14       30.11F
POST 1NE         N/A     69  53  56 S10       30.12R
RRING SPRGS 3N   N/A     70  54  55 S18       30.12S
SEYMOUR 3NW      N/A     72  53  50 SE16      30.13S
SPUR 1W          N/A     70  53  53 S14       30.11S
WEINERT 2NNE     N/A     75  53  46 S17       30.12S
WHITE RVR 6NE    N/A     70  52  52 S17       30.13R
$$

TXZ052-054-060>062-072-078-127-140-154-169-191800-
TEXAS TECH WEST TEXAS MESONET/PERMIAN BASIN/
CONCHO VALLEY/BIG COUNTRY/EDWARDS PLATEAU

CITY           SKY/WX    TMP DP  RH WIND       PRES   REMARKS
COYANOSA 2N      N/A     71  54  54 SE22      30.05R
JUNCTION 1SSW    N/A     71  52  50 SE10      30.16S
MERTZON 3NNE     N/A     68  52  56 SE12      30.14S
SAN ANGELO 7NW   N/A     70  51  50 SE15      30.13F
STRLNG CT 4WSW   N/A     69  53  57 SE14      30.13S
ST LAWRNCE 5SW   N/A     66  51  56 S23       30.12R
SWEETWATR 11SW   N/A     69  53  56 S16       30.14S
WALL 1E          N/A     71  51  50 SE17      30.14F
$$

TXZ055-058-074-075-080-082-191800-
TEXAS TECH WEST TEXAS MESONET/FAR WEST/SOUTHWEST MOUNTAINS/TRANS PECOS

CITY           SKY/WX    TMP DP  RH WIND       PRES   REMARKS
PRSMN GAP BBNP   N/A     73  53  49 N6        30.07S
$$